Weather History for San Carlos, CA

Change the Weather History Date:

Saturday, February 16, 2013

  Actual Average Record
Temperature  
Mean Temperature 57 °F -  
Max Temperature 68 °F 61 °F 75 °F (2007)
Min Temperature 46 °F 42 °F 32 °F (1966)
Degree Days  
Heating Degree Days 8    
Growing Degree Days 7 (Base 50)    
Moisture  
Dew Point 45 °F    
Average Humidity 75    
Maximum Humidity 87    
Minimum Humidity 46    
Precipitation  
Precipitation 0.00 in - - ()
Sea Level Pressure  
Sea Level Pressure 30.16 in    
Wind  
Wind Speed 1 mph (NW)    
Max Wind Speed 9 mph    
Max Gust Speed -    
Visibility 9 miles    
Events      
Averages and records for this station are not official NWS values.
T = Trace of Precipitation, MM = Missing Value Source: NWS Daily Summary

Daily Weather History Graph

Daily Weather History Graph

Search for Another Location

Airport:

Trip Planner

Search our weather history database for the weather conditions in past years. The results will help you decide how hot, cold, wet, or windy it might be!

Date:

Astronomy

Feb. 16, 2013 Rise Set
Actual Time 6:56 AM PST 5:49 PM PST
Civil Twilight 6:30 AM PST 6:16 PM PST
Nautical Twilight 5:59 AM PST 6:47 PM PST
Astronomical Twilight 5:29 AM PST 7:17 PM PST
Moon 10:21 AM PST (2/16) No Moon Set
Length of Visible Light 11h 46m
Length of Day
10h 53m
Waxing Crescent, 40% of the Moon is Illuminated
Feb 16
Waxing Crescent
Feb 17
First Quarter
Feb 25
Full
Mar 4
Last Quarter
Mar 11
New

Hourly Weather History & Observations

Time (PST) Temp. Windchill Dew Point Humidity Pressure Visibility Wind Dir Wind Speed Gust Speed Precip Events Conditions
12:15 AM 51.8 °F - 42.8 °F 71% 30.24 in 10.0 mi Calm Calm - N/A   Clear
12:35 AM 50.0 °F - 42.8 °F 76% 30.24 in 10.0 mi Calm Calm - N/A   Clear
12:55 AM 50.0 °F - 42.8 °F 76% 30.24 in 10.0 mi Calm Calm - N/A   Clear
1:15 AM 50.0 °F - 42.8 °F 76% 30.24 in 10.0 mi Calm Calm - N/A   Clear
1:35 AM 50.0 °F - 42.8 °F 76% 30.24 in 10.0 mi Calm Calm - N/A   Clear
1:55 AM 50.0 °F - 42.8 °F 76% 30.23 in 10.0 mi Calm Calm - N/A   Clear
2:15 AM 48.2 °F - 42.8 °F 82% 30.23 in 10.0 mi Calm Calm - N/A   Clear
2:35 AM 48.2 °F - 42.8 °F 82% 30.22 in 10.0 mi Calm Calm - N/A   Clear
2:55 AM 50.0 °F - 44.6 °F 82% 30.22 in 10.0 mi WNW 3.5 mph - N/A   Clear
3:15 AM 50.0 °F - 44.6 °F 82% 30.22 in 10.0 mi NW 3.5 mph - N/A   Partly Cloudy
3:35 AM 50.0 °F - 44.6 °F 82% 30.21 in 10.0 mi WNW 3.5 mph - N/A   Clear
3:55 AM 50.0 °F - 44.6 °F 82% 30.20 in 10.0 mi Calm Calm - N/A   Clear
4:15 AM 48.2 °F - 42.8 °F 82% 30.20 in 10.0 mi Calm Calm - N/A   Clear
4:35 AM 48.2 °F - 42.8 °F 82% 30.20 in 10.0 mi Calm Calm - N/A   Clear
4:55 AM 48.2 °F - 42.8 °F 82% 30.20 in 10.0 mi Calm Calm - N/A   Clear
5:15 AM 48.2 °F - 44.6 °F 87% 30.20 in 10.0 mi Calm Calm - N/A   Clear
5:35 AM 48.2 °F - 42.8 °F 82% 30.20 in 10.0 mi Calm Calm - N/A   Clear
5:55 AM 48.2 °F - 44.6 °F 87% 30.20 in 10.0 mi Calm Calm - N/A   Clear
6:15 AM 48.2 °F - 44.6 °F 87% 30.20 in 10.0 mi Calm Calm - N/A   Clear
6:35 AM 46.4 °F 45.2 °F 42.8 °F 87% 30.20 in 10.0 mi SSW 3.5 mph - N/A   Clear
6:50 AM 46.4 °F - 42.8 °F 87% 30.20 in 10.0 mi Calm Calm - N/A   Mostly Cloudy
6:55 AM 48.2 °F - 42.8 °F 82% 30.20 in 10.0 mi Calm Calm - N/A   Clear
7:47 AM 48.2 °F - 42.8 °F 82% 30.21 in 10.0 mi Calm Calm - N/A   Mostly Cloudy
8:47 AM 53.6 °F - 44.6 °F 72% 30.21 in 10.0 mi Calm Calm - N/A   Mostly Cloudy
9:49 AM 55.4 °F - 48.2 °F 77% 30.21 in 8.0 mi Calm Calm - N/A   Mostly Cloudy
10:47 AM 59.0 °F - 48.2 °F 67% 30.20 in 7.0 mi East 3.5 mph - N/A   Mostly Cloudy
11:48 AM 62.6 °F - 48.2 °F 59% 30.18 in 7.0 mi ENE 5.8 mph - N/A   Mostly Cloudy
12:48 PM 64.4 °F - 50.0 °F 59% 30.15 in 6.0 mi NNE 6.9 mph - N/A   Haze
1:47 PM 66.2 °F - 46.4 °F 49% 30.13 in 6.0 mi NNW 5.8 mph - N/A   Haze
2:48 PM 66.2 °F - 46.4 °F 49% 30.10 in 5.0 mi NW 3.5 mph - N/A   Haze
3:47 PM 68.0 °F - 46.4 °F 46% 30.09 in 5.0 mi NNW 4.6 mph - N/A   Haze
4:47 PM 68.0 °F - 46.4 °F 46% 30.07 in 5.0 mi North 6.9 mph - N/A   Haze
5:47 PM 62.6 °F - 48.2 °F 59% 30.08 in 10.0 mi NW 9.2 mph - N/A   Scattered Clouds
6:52 PM 59.0 °F - 46.4 °F 63% 30.08 in 10.0 mi NW 6.9 mph - N/A   Scattered Clouds
7:47 PM 57.2 °F - 44.6 °F 63% 30.08 in 10.0 mi Calm Calm - N/A   Clear
8:47 PM 53.6 °F - 46.4 °F 77% 30.08 in 10.0 mi North 5.8 mph - N/A   Clear
9:15 PM 53.6 °F - 46.4 °F 77% 30.08 in 10.0 mi Calm Calm - N/A   Scattered Clouds
9:35 PM 51.8 °F - 46.4 °F 82% 30.09 in 10.0 mi Calm Calm - N/A   Mostly Cloudy
9:55 PM 51.8 °F - 46.4 °F 82% 30.09 in 10.0 mi NW 6.9 mph - N/A   Scattered Clouds
10:15 PM 51.8 °F - 44.6 °F 76% 30.09 in 10.0 mi WNW 5.8 mph - N/A   Partly Cloudy
10:35 PM 51.8 °F - 44.6 °F 76% 30.09 in 10.0 mi West 3.5 mph - N/A   Clear
10:55 PM 51.8 °F - 46.4 °F 82% 30.09 in 10.0 mi Calm Calm - N/A   Clear
11:15 PM 50.0 °F - 42.8 °F 76% 30.08 in 10.0 mi NNW 3.5 mph - N/A   Clear
11:35 PM 51.8 °F - 42.8 °F 71% 30.08 in 10.0 mi NW 4.6 mph - N/A   Clear
11:55 PM 50.0 °F - 44.6 °F 82% 30.08 in 10.0 mi NNW 8.1 mph - N/A   Clear